Location: Tierra del Sol
(32.6128°N, 116.3319°W)
Time: 02:58:53
(UTC-08:00)

Tiangong 2 - Pass Details

Date: 16 October 2017
Orbit: 387 x 389 km, 42.8° (Epoch: 18 December)

Event Time Altitude Azimuth Distance (km) Brightness Sun altitude
Exits shadow 06:18:30 - 314° (NW) 1,805 4.0 -7.5°
Reaches altitude 10° 06:19:36 10° 324° (NW) 1,419 3.5 -7.2°
Maximum altitude 06:22:12 22° 18° (NNE) 903 3.1 -6.7°
Drops below altitude 10° 06:24:48 10° 72° (ENE) 1,419 5.2 -6.1°
Sets 06:27:10 0° 88° (E) 2,274 7.3 -5.6°
